Location: Fernhill
(41.0167°S, 175.6333°E)
Time: 10:04:06
(UTC+00:00)

Cosmos 1697 Rocket - Pass Details

Date: 08 November 2025
Orbit: 832 x 842 km, 71.0° (Epoch: 12 December)

Event Time Altitude Azimuth Distance (km) Brightness Sun altitude
Rises 08:42:53 0° 193° (SSW) 3,433 6.8 -16.3°
Reaches altitude 10° 08:46:04 10° 175° (S) 2,490 5.6 -16.7°
Maximum altitude 08:50:09 20° 129° (SE) 1,891 4.4 -17.3°
Enters shadow 08:52:42 15° 97° (E) 2,139 4.4 -17.7°
